Погода в Кигали

Руанда     1°56′58″S   30°05′30″E
темп.,
°C
ветер,
м/с
пор.,
м/с
влажн.,
%
обл.,
%
осадки,
мм/ч
давл.,
гПа
погр.,
м
10 августа, ср
ср1023:00+19з114877 0.0 101411
02:00+18сз115115 0.0 101411
05:00+15сз006383 0.0 101511
08:00+21з114899 0.0 1016254
11:00+26ююв33283 0.0 10141859
14:00+29юз222497 0.0 10092681
17:00+27ююз1131100 0.0 1009102
20:00+21з1141100 0.0 101211
11 августа, чт
чт1123:00+18сз115063 0.0 101411
02:00+19зсз114974 0.0 101211
05:00+16сз116010 0.0 101412
08:00+21сз114627 0.0 1014232
11:00+27ююв332894 0.0 10121977
14:00+30ююз2222100 0.0 10092810
17:00+27ююв0129100 0.0 100832
20:00+21зсз1141100 0.0 101211
12 августа, пт
пт1223:00+21сз114151 0.0 101313
02:00+18сз2149100 0.0 101221
05:00+19сз1149100 0.0 101311
08:00+21в1144100 0.0 1014190
11:00+27ююв342967 0.0 10132181
14:00+29ю232575 0.0 10092845
17:00+26ю2532100 0.0 1009697
20:00+21зсз2144100 0.0 101115
13 августа, сб
сб1323:00+21св1144100 0.0 101316
02:00+19зсз11496 0.0 101211
05:00+19ссз1150100 0.0 101213
08:00+22юз0144100 0.0 1014293
11:00+28ююв232929 0.0 10122305
14:00+28юз432788 0.0 10082689
17:00+26зюз123348 0.0 1008628
20:00+21сз1149100 0.0 101122
14 августа, вс
вс1423:00+21ссз2247100 0.0 101351
02:00+20ссз1151100 0.0 101134
05:00+19сз115499 0.0 101217
08:00+23з014568 0.0 1013354
11:00+29ююв232691 0.0 10112699
14:00+31ю132397 0.0 10073232
17:00+23сз2245100 0.0 100859
20:00+22зсз1152100 0.0 101120